{"data":{"norad_id":47143,"epoch":"2026-05-25T06:00:02.000160Z","epoch_age_seconds":46698,"freshness":"FRESH","line1":"1 47143U 20088X   26145.25002315  .00070832  00000+0  65164-3 0  9997","line2":"2 47143  53.0451 261.5425 0002870   1.3148 181.1367 15.67044909  5948","mean_motion":15.67044909,"eccentricity":0.000287,"inclination_deg":53.0451,"raan_deg":261.5425,"arg_perigee_deg":1.3148,"mean_anomaly_deg":181.1367,"bstar":0.00065164,"rev_number":594,"period_min":91.892707843257,"perigee_km":365.42806856988,"apogee_km":369.29998615959,"semimajor_km":6745.5010273647,"source":"CELESTRAK","updated_at":"2026-05-25T13:38:16.521863Z"}}